• In Spain
  • List of Countries
  • For 7 days
  • Water Temperature
  • Satellite Maps
  • Weather Map
  • Weather Widgets
  • user-avatar
    Login

    Hourly Weather Namibe

    Today, 15 December, Friday

    Time Temperature Precipitation Wind Pressure Humidity
    00:00 +27°C° 0 mm 2 mps 758 mmHg 67%
    01:00 +27°C° 0 mm 2 mps 758 mmHg 69%
    02:00 +27°C° 0 mm 2 mps 758 mmHg 69%
    03:00 +27°C° 0 mm 1 mps 758 mmHg 68%
    04:00 +27°C° 0 mm 1 mps 758 mmHg 68%
    05:00 +27°C° 0 mm 1 mps 758 mmHg 68%
    06:00 +28°C° 0 mm 1 mps 758 mmHg 67%
    07:00 +28°C° 0 mm 2 mps 759 mmHg 66%
    08:00 +30°C° 0 mm 2 mps 758 mmHg 61%
    09:00 +31°C° 0 mm 3 mps 758 mmHg 56%
    10:00 +34°C° 0 mm 3 mps 758 mmHg 50%
    11:00 +35°C° 0 mm 4 mps 758 mmHg 47%
    12:00 +36°C° 0 mm 5 mps 757 mmHg 43%
    13:00 +35°C° 0 mm 6 mps 757 mmHg 44%
    14:00 +35°C° 0 mm 6 mps 756 mmHg 43%
    15:00 +36°C° 0 mm 6 mps 756 mmHg 42%
    16:00 +36°C° 0 mm 6 mps 755 mmHg 41%
    17:00 +34°C° 0 mm 6 mps 755 mmHg 45%
    18:00 +32°C° 0 mm 6 mps 755 mmHg 50%
    19:00 +30°C° 0 mm 6 mps 755 mmHg 54%
    20:00 +30°C° 0 mm 5 mps 756 mmHg 53%
    21:00 +30°C° 0 mm 5 mps 756 mmHg 52%
    22:00 +29°C° 0 mm 4 mps 757 mmHg 50%
    23:00 +29°C° 0 mm 4 mps 757 mmHg 50%

    Tomorrow, 16 December, Saturday

    Time Temperature Precipitation Wind Pressure Humidity
    00:00 +28°C° 0 mm 4 mps 756 mmHg 50%
    01:00 +28°C° 0 mm 4 mps 756 mmHg 50%
    02:00 +27°C° 0 mm 4 mps 756 mmHg 53%
    03:00 +27°C° 0 mm 4 mps 756 mmHg 55%
    04:00 +26°C° 0 mm 3 mps 756 mmHg 57%
    05:00 +26°C° 0 mm 3 mps 756 mmHg 57%
    06:00 +26°C° 0 mm 3 mps 756 mmHg 57%
    07:00 +26°C° 0 mm 3 mps 757 mmHg 57%
    08:00 +28°C° 0 mm 3 mps 757 mmHg 51%
    09:00 +30°C° 0 mm 3 mps 757 mmHg 45%
    10:00 +34°C° 0 mm 3 mps 757 mmHg 39%
    11:00 +34°C° 0 mm 4 mps 756 mmHg 38%
    12:00 +35°C° 0 mm 5 mps 756 mmHg 38%
    13:00 +35°C° 0 mm 5 mps 756 mmHg 38%
    14:00 +34°C° 0 mm 5 mps 755 mmHg 40%
    15:00 +33°C° 0 mm 5 mps 755 mmHg 42%
    16:00 +32°C° 0 mm 6 mps 755 mmHg 44%
    17:00 +30°C° 0 mm 5 mps 756 mmHg 50%
    18:00 +28°C° 0 mm 4 mps 756 mmHg 56%
    19:00 +27°C° 0 mm 3 mps 757 mmHg 61%
    20:00 +27°C° 0 mm 3 mps 757 mmHg 62%
    21:00 +27°C° 0 mm 3 mps 758 mmHg 64%
    22:00 +27°C° 0 mm 3 mps 758 mmHg 65%
    23:00 +27°C° 0 mm 3 mps 758 mmHg 65%

    Day after tomorrow, 17 December, Sunday

    Time Temperature Precipitation Wind Pressure Humidity
    00:00 +27°C° 0 mm 3 mps 758 mmHg 65%
    01:00 +27°C° 0 mm 3 mps 757 mmHg 64%
    02:00 +27°C° 0 mm 3 mps 757 mmHg 66%
    03:00 +26°C° 0 mm 3 mps 757 mmHg 67%
    04:00 +26°C° 0 mm 3 mps 756 mmHg 68%
    05:00 +26°C° 0 mm 2 mps 757 mmHg 69%
    06:00 +26°C° 0 mm 2 mps 757 mmHg 69%
    07:00 +26°C° 0 mm 2 mps 757 mmHg 70%
    08:00 +28°C° 0 mm 2 mps 758 mmHg 65%
    09:00 +30°C° 0 mm 3 mps 758 mmHg 59%
    10:00 +33°C° 0 mm 3 mps 758 mmHg 53%
    11:00 +33°C° 0 mm 4 mps 757 mmHg 50%
    12:00 +34°C° 0 mm 5 mps 757 mmHg 46%
    13:00 +35°C° 0 mm 5 mps 756 mmHg 43%
    14:00 +34°C° 0 mm 5 mps 756 mmHg 45%
    15:00 +33°C° 0 mm 6 mps 756 mmHg 47%
    16:00 +32°C° 0 mm 6 mps 756 mmHg 49%
    17:00 +30°C° 0 mm 5 mps 756 mmHg 55%
    18:00 +28°C° 0 mm 4 mps 757 mmHg 61%
    19:00 +27°C° 0 mm 4 mps 757 mmHg 66%
    20:00 +27°C° 0 mm 3 mps 758 mmHg 67%
    21:00 +27°C° 0 mm 2 mps 759 mmHg 67%
    22:00 +27°C° 0 mm 2 mps 759 mmHg 68%
    23:00 +27°C° 0 mm 2 mps 759 mmHg 68%

    18 December, Monday

    Time Temperature Precipitation Wind Pressure Humidity
    00:00 +27°C° 0 mm 2 mps 758 mmHg 68%
    01:00 +27°C° 0 mm 3 mps 758 mmHg 68%
    02:00 +26°C° 0 mm 3 mps 757 mmHg 71%
    03:00 +26°C° 0 mm 3 mps 757 mmHg 74%
    04:00 +25°C° 0 mm 3 mps 757 mmHg 76%
    05:00 +25°C° 0 mm 2 mps 757 mmHg 76%
    06:00 +25°C° 0 mm 2 mps 757 mmHg 76%
    07:00 +26°C° 0 mm 1 mps 758 mmHg 75%
    08:00 +27°C° 0 mm 2 mps 758 mmHg 68%
    09:00 +29°C° 0 mm 2 mps 758 mmHg 60%
    10:00 +31°C° 0 mm 3 mps 758 mmHg 52%
    11:00 +33°C° 0 mm 4 mps 757 mmHg 49%
    12:00 +34°C° 0 mm 5 mps 756 mmHg 46%
    13:00 +35°C° 0 mm 5 mps 756 mmHg 43%
    14:00 +34°C° 0 mm 5 mps 755 mmHg 44%
    15:00 +33°C° 0 mm 5 mps 755 mmHg 44%
    16:00 +33°C° 0 mm 5 mps 755 mmHg 45%
    17:00 +30°C° 0 mm 4 mps 755 mmHg 50%
    18:00 +29°C° 0 mm 4 mps 756 mmHg 55%
    19:00 +27°C° 0 mm 3 mps 756 mmHg 60%
    20:00 +27°C° 0 mm 3 mps 757 mmHg 62%
    21:00 +27°C° 0 mm 3 mps 757 mmHg 64%
    22:00 +26°C° 0 mm 2 mps 757 mmHg 66%
    23:00 +26°C° 0 mm 2 mps 757 mmHg 69%

    19 December, Tuesday

    Time Temperature Precipitation Wind Pressure Humidity
    00:00 +26°C° 0 mm 2 mps 757 mmHg 71%
    01:00 +25°C° 0 mm 2 mps 756 mmHg 73%
    02:00 +25°C° 0 mm 2 mps 756 mmHg 76%
    03:00 +24°C° 0 mm 2 mps 756 mmHg 79%
    04:00 +24°C° 0 mm 2 mps 756 mmHg 82%
    05:00 +24°C° 0 mm 2 mps 756 mmHg 82%
    06:00 +24°C° 0 mm 2 mps 757 mmHg 82%
    07:00 +24°C° 0 mm 2 mps 757 mmHg 82%
    08:00 +26°C° 0 mm 2 mps 757 mmHg 75%
    09:00 +27°C° 0 mm 2 mps 757 mmHg 68%
    10:00 +29°C° 0 mm 3 mps 757 mmHg 61%
    11:00 +29°C° 0 mm 3 mps 757 mmHg 62%
    12:00 +29°C° 0 mm 4 mps 757 mmHg 62%
    13:00 +29°C° 0 mm 4 mps 756 mmHg 62%
    14:00 +28°C° 0 mm 4 mps 756 mmHg 66%
    15:00 +27°C° 0 mm 4 mps 755 mmHg 70%
    16:00 +26°C° 0 mm 4 mps 755 mmHg 74%
    17:00 +26°C° 0.1 mm 3 mps 755 mmHg 75%
    18:00 +25°C° 0.1 mm 3 mps 756 mmHg 76%
    19:00 +25°C° 0.1 mm 3 mps 756 mmHg 77%
    20:00 +25°C° 0 mm 3 mps 757 mmHg 77%
    21:00 +25°C° 0 mm 2 mps 757 mmHg 78%
    22:00 +25°C° 0 mm 2 mps 758 mmHg 78%
    23:00 +25°C° 0 mm 2 mps 757 mmHg 79%

    20 December, Wednesday

    Time Temperature Precipitation Wind Pressure Humidity
    00:00 +25°C° 0 mm 2 mps 757 mmHg 79%
    01:00 +25°C° 0 mm 2 mps 757 mmHg 80%
    02:00 +25°C° 0 mm 1 mps 756 mmHg 80%
    03:00 +25°C° 0 mm 1 mps 756 mmHg 81%
    04:00 +24°C° 0 mm 1 mps 756 mmHg 82%
    05:00 +25°C° 0 mm 1 mps 756 mmHg 82%
    06:00 +25°C° 0 mm 1 mps 757 mmHg 82%
    07:00 +25°C° 0 mm 1 mps 757 mmHg 82%
    08:00 +26°C° 0 mm 1 mps 757 mmHg 76%
    09:00 +27°C° 0 mm 1 mps 758 mmHg 71%
    10:00 +28°C° 0 mm 1 mps 758 mmHg 66%
    11:00 +30°C° 0 mm 2 mps 757 mmHg 60%
    12:00 +31°C° 0 mm 3 mps 757 mmHg 54%
    13:00 +34°C° 0 mm 4 mps 757 mmHg 48%
    14:00 +33°C° 0 mm 4 mps 756 mmHg 53%
    15:00 +32°C° 0 mm 5 mps 756 mmHg 58%
    16:00 +30°C° 0 mm 5 mps 756 mmHg 63%
    17:00 +28°C° 0 mm 4 mps 756 mmHg 67%
    18:00 +27°C° 0 mm 4 mps 757 mmHg 72%
    19:00 +26°C° 0 mm 3 mps 757 mmHg 77%
    20:00 +26°C° 0 mm 3 mps 758 mmHg 77%
    21:00 +26°C° 0 mm 2 mps 758 mmHg 78%
    22:00 +25°C° 0 mm 2 mps 759 mmHg 79%
    23:00 +25°C° 0 mm 2 mps 758 mmHg 79%
    Show more